Regional Weather Roundup
Issued by NWS Lake Charles, LA

Home | Current Version | Previous Version | Text Only | Print | Product List | Glossary On
Versions: 1 2 3 4 5 6 7 8 9 10 11 12 13 14 15 16 17 18 19 20 21 22 23 24 25 26 27 28 29 30 31 32 33 34 35 36 37 38 39 40 41 42 43 44 45 46 47 48 49 50
120
ASUS44 KLCH 241210
RWRLCH
REGIONAL WEATHER ROUNDUP
NATIONAL WEATHER SERVICE LAKE CHARLES LA
600 AM CST TUE JAN 24 2017

Note: "fair" indicates few or no clouds below 12,000 feet with no
significant weather and/or obstructions to visibility.


ACROSS SOUTHEAST TEXAS

CITY           SKY/WX    TMP DP  RH WIND       PRES   REMARKS
BEAUMONT       CLEAR     51  50  96 SE6       29.83S FOG
BEAUMONT CITY  FAIR      54  52  94 SE5       29.84S
ORANGE         MOSUNNY   46  45  97 CALM      29.86F FOG
JASPER         CLEAR     42  42 100 CALM      29.86S
$$

ACROSS CENTRAL LOUISIANA

CITY           SKY/WX    TMP DP  RH WIND       PRES   REMARKS
LEESVILLE      CLEAR     43  41  91 E3        29.85S
FULLERTON      FAIR      41  39  93 CALM      29.84S
ALEXANDRIA INT CLEAR     46  42  86 E8        29.86S
ESLER FIELD    CLEAR     38  37  97 CALM      29.88S
DERIDDER       FAIR      43  42  95 CALM      29.87S
OAKDALE        SUNNY     39  38  97 CALM      29.88R
OPELOUSAS      FAIR      41  39  95 CALM      29.90R
$$

ACROSS SOUTHWEST AND SOUTH CENTRAL LOUISIANA

CITY           SKY/WX    TMP DP  RH WIND       PRES   REMARKS
SULPHUR        FOG       51  51 100 CALM      29.86F VSB 1/4
LAKE CHARLES   FOG       46  46 100 SE3       29.86S VSB 1
CHENNAULT INT  FOG       45  44  99 E3        29.87S VSB 1/4
CAMERON PHI    NOT AVBL
DEQUINCY       FOG       44  44  99 CALM      29.86S VSB 1/2
JENNINGS       FAIR      47  46  96 E5        29.88S
LAFAYETTE      CLEAR     49  47  93 CALM      29.90S
NEW IBERIA     PTCLDY    44  41  89 CALM      29.91R
ABBEVILLE      FAIR      43  43 100 MISG      29.90S
PATTERSON      FOG       45  45 100 CALM      29.92S VSB 1/4
SALT POINT     NOT AVBL
$$

SELECTED SITES ACROSS THE REGION

CITY           SKY/WX    TMP DP  RH WIND       PRES   REMARKS
HOUSTON BUSH   PTCLDY    56  52  86 S3        29.80S
HOUSTON HOBBY  PTCLDY    55  53  93 SE6       29.80F
GALVESTON      CLEAR     65  61  87 S12       29.83S
COLLEGE STAT   CLEAR     51  49  92 SE5       29.77S
CONROE         CLEAR     41  39  93 CALM      29.80S
HUNTSVILLE     CLEAR     54  50  86 S6        29.78S
LUFKIN         CLEAR     43  39  86 SE6       29.80F
SHREVEPORT     PTCLDY    46  39  76 SE5       29.81S
MONROE         CLEAR     42  40  92 CALM      29.89S
NATCHEZ MS     CLEAR     41  37  87 SE5       29.90S
BATON ROUGE    CLEAR     42  40  92 NE5       29.91S
N.O. INTL ARPT CLEAR     48  45  89 CALM      29.92R
SLIDELL        CLEAR     42  41  96 N3        29.93R
$$

MARINE REPORTS

STATION/POSITION TIME  SKY/WX   TEMP    WIND        PRES    VSBY
                                AIR SEA DIR/SP/G
                 (UTC)          (F)     (DEG/KT/KT) (MB)    (MI)
BUOY 30 S HIGH I 1050            66 65  190/ 10/ 12 1010.1
WVE H/P(F/S)=  1/ 3

SEA RIM ST PARK  1100            62     160/  6/  6 1011.1F
PORT ARTHUR      1148               62  150/  3/  4 1010.5F
SABINE PASS N    1148            62 63  160/  8/ 10 1011.7F
TEXAS POINT      NOT AVBL
CALCASIEU PASS   1148            62 61  170/  6/  7   N/A
LK CHARLES BEACH 1148            50 63              1011.5F
MARSH ISLAND     1100            61                   N/A
FRESH WATER LOCK 1148            55 60   80/  6/  6 1012.8R
AMERADA PASS     1148            54 54   50/  2/  4 1012.7R
$$




USA.gov is the U.S. government's official web portal to all federal, state and local government web resources and services.